Retour au catalogue

CZ-6A DEB

ActifSSO
NORAD 55521·DEBRIS·🇨🇳 China

Lancé Nov 11, 2022 depuis Taiyuan Satellite Launch Center

Loading…

Prochains Passages (prochaines 24 heures)

TLE

FraisSource: Space-Track

Époque: Sep 14, 2026, 11:09 UTC

1 55521U 22151XT  26257.46511336  .00000184  00000-0  13011-3 0  9992
2 55521  98.8685 253.7796 0057473  93.8753 266.8991 14.08639748192108

Suivez CZ-6A DEB en temps réel avec AllMySat

Download on the App Store